Time,TemperatureF,DewpointF,PressureIn,WindDirection,WindDirectionDegrees,WindSpeedMPH,WindSpeedGustMPH,Humidity,HourlyPrecipIn,Conditions,Clouds,dailyrainin,SolarRadiationWatts/m^2,SoftwareType,DateUTC
2013-09-23 00:00:00,55.0,44.2,30.00,North,11,3.0,9.0,67,0.00,,,0.00,0,Wunderground v.1.15,2013-09-23 04:00:00,
2013-09-23 00:01:00,55.0,44.2,30.00,ENE,59,5.0,5.0,67,0.00,,,0.00,0,Wunderground v.1.15,2013-09-23 04:01:00,
2013-09-23 00:07:00,54.9,44.5,30.00,WNW,298,3.0,5.0,68,0.00,,,0.00,0,Wunderground v.1.15,2013-09-23 04:07:00,
2013-09-23 00:12:00,54.8,44.4,30.00,North,5,2.0,5.0,68,0.00,,,0.00,0,Wunderground v.1.15,2013-09-23 04:12:00,
2013-09-23 00:17:00,54.7,44.3,30.00,West,277,0.0,5.0,68,0.00,,,0.00,0,Wunderground v.1.15,2013-09-23 04:17:00,
2013-09-23 00:23:00,54.5,44.5,30.01,WSW,248,3.0,3.0,69,0.00,,,0.00,0,Wunderground v.1.15,2013-09-23 04:23:00,
2013-09-23 00:28:00,54.4,44.0,30.01,NNW,343,0.0,6.0,69,0.00,,,0.00,0,weatherlink.com 1.10,2013-09-23 04:28:00,
2013-09-23 00:34:00,54.2,44.2,30.01,NE,46,0.0,3.0,69,0.00,,,0.00,0,Wunderground v.1.15,2013-09-23 04:34:00,
2013-09-23 00:39:00,54.1,44.5,30.00,NNW,342,0.0,3.0,70,0.00,,,0.00,0,Wunderground v.1.15,2013-09-23 04:39:00,
2013-09-23 00:45:00,53.9,44.3,30.01,ESE,121,2.0,4.0,70,0.00,,,0.00,0,Wunderground v.1.15,2013-09-23 04:45:00,
2013-09-23 00:50:00,53.8,44.2,30.01,NW,324,1.0,1.0,70,0.00,,,0.00,0,Wunderground v.1.15,2013-09-23 04:50:00,
2013-09-23 00:56:00,53.7,44.5,30.01,NW,323,7.0,7.0,71,0.00,,,0.00,0,Wunderground v.1.15,2013-09-23 04:56:00,
2013-09-23 01:01:00,53.7,44.5,30.01,NW,323,0.0,2.0,71,0.00,,,0.00,0,Wunderground v.1.15,2013-09-23 05:01:00,
2013-09-23 01:07:00,53.6,44.4,30.01,NNW,335,1.0,2.0,71,0.00,,,0.00,0,Wunderground v.1.15,2013-09-23 05:07:00,
2013-09-23 01:13:00,53.5,44.3,30.01,SSW,213,1.0,1.0,71,0.00,,,0.00,0,Wunderground v.1.15,2013-09-23 05:13:00,
2013-09-23 01:19:00,53.3,44.5,30.01,WSW,252,1.0,3.0,72,0.00,,,0.00,0,Wunderground v.1.15,2013-09-23 05:19:00,
2013-09-23 01:24:00,53.2,44.4,30.01,NW,310,1.0,2.0,72,0.00,,,0.00,0,Wunderground v.1.15,2013-09-23 05:24:00,
2013-09-23 01:29:00,53.2,44.4,30.01,NW,313,2.0,3.0,72,0.00,,,0.00,0,Wunderground v.1.15,2013-09-23 05:29:00,
2013-09-23 01:35:00,53.1,44.3,30.01,North,5,0.0,2.0,72,0.00,,,0.00,0,Wunderground v.1.15,2013-09-23 05:35:00,
2013-09-23 01:41:00,53.0,44.2,30.01,NW,314,0.0,1.0,72,0.00,,,0.00,0,Wunderground v.1.15,2013-09-23 05:41:00,
2013-09-23 01:46:00,53.0,44.6,30.02,NW,317,0.0,1.0,73,0.00,,,0.00,0,Wunderground v.1.15,2013-09-23 05:46:00,
2013-09-23 01:52:00,52.9,44.5,30.01,NE,54,1.0,1.0,73,0.00,,,0.00,0,Wunderground v.1.15,2013-09-23 05:52:00,
2013-09-23 01:58:00,52.8,44.4,30.02,NNW,345,0.0,3.0,73,0.00,,,0.00,0,Wunderground v.1.15,2013-09-23 05:58:00,
2013-09-23 02:03:00,52.7,44.6,30.02,NNW,345,0.0,1.0,74,0.00,,,0.00,0,Wunderground v.1.15,2013-09-23 06:03:00,
2013-09-23 02:08:00,52.6,44.5,30.02,NNW,345,0.0,1.0,74,0.00,,,0.00,0,Wunderground v.1.15,2013-09-23 06:08:00,
2013-09-23 02:13:00,52.4,44.4,30.02,North,9,0.0,3.0,74,0.00,,,0.00,0,Wunderground v.1.15,2013-09-23 06:13:00,
2013-09-23 02:18:00,52.3,44.3,30.01,NNW,346,0.0,3.0,74,0.00,,,0.00,0,Wunderground v.1.15,2013-09-23 06:18:00,
2013-09-23 02:22:00,52.2,44.2,30.01,ENE,64,1.0,1.0,74,0.00,,,0.00,0,Wunderground v.1.15,2013-09-23 06:22:00,
2013-09-23 02:28:00,52.1,44.4,30.01,NNE,33,1.0,2.0,75,0.00,,,0.00,0,Wunderground v.1.15,2013-09-23 06:28:00,
2013-09-23 02:33:00,52.1,44.4,30.01,NNE,33,0.0,0.0,75,0.00,,,0.00,0,Wunderground v.1.15,2013-09-23 06:33:00,
2013-09-23 02:38:00,52.0,44.7,30.02,ENE,61,0.0,2.0,76,0.00,,,0.00,0,Wunderground v.1.15,2013-09-23 06:38:00,
2013-09-23 02:43:00,51.9,44.6,30.01,ENE,61,0.0,1.0,76,0.00,,,0.00,0,Wunderground v.1.15,2013-09-23 06:43:00,
2013-09-23 02:48:00,51.8,44.8,30.01,North,350,7.0,7.0,77,0.00,,,0.00,0,Wunderground v.1.15,2013-09-23 06:48:00,
2013-09-23 02:53:00,51.7,44.4,30.02,NNE,17,0.0,2.0,76,0.00,,,0.00,0,Wunderground v.1.15,2013-09-23 06:53:00,
2013-09-23 02:58:00,51.7,44.4,30.02,NW,324,0.0,2.0,76,0.00,,,0.00,0,Wunderground v.1.15,2013-09-23 06:58:00,
2013-09-23 03:03:00,51.7,44.4,30.02,ENE,61,0.0,3.0,76,0.00,,,0.00,0,Wunderground v.1.15,2013-09-23 07:03:00,
2013-09-23 03:08:00,51.7,44.4,30.02,NNE,27,0.0,4.0,76,0.00,,,0.00,0,Wunderground v.1.15,2013-09-23 07:08:00,
2013-09-23 03:13:00,51.6,44.3,30.02,NNW,327,3.0,4.0,76,0.00,,,0.00,0,Wunderground v.1.15,2013-09-23 07:13:00,
2013-09-23 03:18:00,51.6,44.3,30.02,NE,46,0.0,4.0,76,0.00,,,0.00,0,Wunderground v.1.15,2013-09-23 07:18:00,
2013-09-23 03:23:00,51.6,44.3,30.03,NNE,31,0.0,3.0,76,0.00,,,0.00,0,Wunderground v.1.15,2013-09-23 07:23:00,
2013-09-23 03:28:00,51.6,44.3,30.02,North,355,2.0,4.0,76,0.00,,,0.00,0,Wunderground v.1.15,2013-09-23 07:28:00,
2013-09-23 03:33:00,51.6,43.9,30.03,SW,225,1.0,6.0,75,0.00,,,0.00,0,Wunderground v.1.15,2013-09-23 07:33:00,
2013-09-23 03:38:00,51.7,43.7,30.03,WSW,252,0.0,10.0,74,0.00,,,0.00,0,Wunderground v.1.15,2013-09-23 07:38:00,
2013-09-23 03:43:00,51.8,43.8,30.03,WNW,299,2.0,3.0,74,0.00,,,0.00,0,Wunderground v.1.15,2013-09-23 07:43:00,
2013-09-23 03:48:00,51.9,43.9,30.03,WNW,300,1.0,7.0,74,0.00,,,0.00,0,Wunderground v.1.15,2013-09-23 07:48:00,
2013-09-23 03:53:00,52.0,44.0,30.03,NE,52,3.0,9.0,74,0.00,,,0.00,0,Wunderground v.1.15,2013-09-23 07:53:00,
2013-09-23 03:58:00,52.0,44.0,30.03,SW,217,1.0,9.0,74,0.00,,,0.00,0,Wunderground v.1.15,2013-09-23 07:58:00,
2013-09-23 04:03:00,52.1,43.7,30.03,NNW,333,1.0,7.0,73,0.00,,,0.00,0,Wunderground v.1.15,2013-09-23 08:03:00,
2013-09-23 04:08:00,52.0,42.9,30.03,WNW,296,1.0,13.0,71,0.00,,,0.00,0,Wunderground v.1.15,2013-09-23 08:08:00,
2013-09-23 04:13:00,52.0,42.5,30.03,SSW,202,1.0,6.0,70,0.00,,,0.00,0,Wunderground v.1.15,2013-09-23 08:13:00,
2013-09-23 04:18:00,52.0,42.1,30.03,SSE,148,2.0,7.0,69,0.00,,,0.00,0,Wunderground v.1.15,2013-09-23 08:18:00,
2013-09-23 04:23:00,52.0,42.1,30.03,NW,319,3.0,12.0,69,0.00,,,0.00,0,Wunderground v.1.15,2013-09-23 08:23:00,
2013-09-23 04:28:00,52.0,41.8,30.04,NNW,338,7.0,12.0,68,0.00,,,0.00,0,Wunderground v.1.15,2013-09-23 08:28:00,
2013-09-23 04:33:00,52.0,41.4,30.04,NNE,23,5.0,7.0,67,0.00,,,0.00,0,Wunderground v.1.15,2013-09-23 08:33:00,
2013-09-23 04:38:00,51.9,41.7,30.04,NNW,336,2.0,7.0,68,0.00,,,0.00,0,Wunderground v.1.15,2013-09-23 08:38:00,
2013-09-23 04:43:00,51.9,42.0,30.04,NE,53,2.0,10.0,69,0.00,,,0.00,0,Wunderground v.1.15,2013-09-23 08:43:00,
2013-09-23 04:48:00,51.8,41.9,30.04,North,351,0.0,10.0,69,0.00,,,0.00,0,Wunderground v.1.15,2013-09-23 08:48:00,
2013-09-23 04:53:00,51.8,41.9,30.04,North,360,2.0,7.0,69,0.00,,,0.00,0,Wunderground v.1.15,2013-09-23 08:53:00,
2013-09-23 04:58:00,51.7,41.9,30.04,South,173,1.0,11.0,69,0.00,,,0.00,0,Wunderground v.1.15,2013-09-23 08:58:00,
2013-09-23 05:03:00,51.6,41.4,30.04,NE,42,0.0,12.0,68,0.00,,,0.00,0,Wunderground v.1.15,2013-09-23 09:03:00,
2013-09-23 05:09:00,51.6,41.8,30.05,NE,45,3.0,12.0,69,0.00,,,0.00,0,Wunderground v.1.15,2013-09-23 09:09:00,
2013-09-23 05:15:00,51.5,41.7,30.05,NNW,348,4.0,7.0,69,0.00,,,0.00,0,Wunderground v.1.15,2013-09-23 09:15:00,
2013-09-23 05:20:00,51.4,41.6,30.05,NE,34,9.0,9.0,69,0.00,,,0.00,0,Wunderground v.1.15,2013-09-23 09:20:00,
2013-09-23 05:25:00,51.4,41.6,30.05,NNE,32,1.0,12.0,69,0.00,,,0.00,0,Wunderground v.1.15,2013-09-23 09:25:00,
2013-09-23 05:30:00,51.3,41.5,30.05,North,360,3.0,12.0,69,0.00,,,0.00,0,Wunderground v.1.15,2013-09-23 09:30:00,
2013-09-23 05:35:00,51.2,41.4,30.06,ENE,70,5.0,9.0,69,0.00,,,0.00,0,Wunderground v.1.15,2013-09-23 09:35:00,
2013-09-23 05:40:00,51.1,41.7,30.06,North,10,3.0,9.0,70,0.00,,,0.00,0,Wunderground v.1.15,2013-09-23 09:40:00,
2013-09-23 05:45:00,51.0,41.6,30.06,NW,314,2.0,10.0,70,0.00,,,0.00,0,Wunderground v.1.15,2013-09-23 09:45:00,
2013-09-23 05:50:00,51.0,41.2,30.06,NNW,348,3.0,10.0,69,0.00,,,0.00,0,Wunderground v.1.15,2013-09-23 09:50:00,
2013-09-23 05:55:00,50.9,41.1,30.06,NW,321,6.0,7.0,69,0.00,,,0.00,0,Wunderground v.1.15,2013-09-23 09:55:00,
2013-09-23 06:00:00,50.8,41.0,30.06,NW,324,4.0,9.0,69,0.00,,,0.00,0,Wunderground v.1.15,2013-09-23 10:00:00,
2013-09-23 06:05:00,50.8,41.7,30.07,NNW,333,1.0,10.0,71,0.00,,,0.00,0,Wunderground v.1.15,2013-09-23 10:05:00,
2013-09-23 06:10:00,50.7,41.3,30.07,North,5,7.0,12.0,70,0.00,,,0.00,0,Wunderground v.1.15,2013-09-23 10:10:00,
2013-09-23 06:15:00,50.6,41.2,30.07,West,281,5.0,12.0,70,0.00,,,0.00,0,Wunderground v.1.15,2013-09-23 10:15:00,
2013-09-23 06:20:00,50.6,41.2,30.07,NW,317,4.0,12.0,70,0.00,,,0.00,0,Wunderground v.1.15,2013-09-23 10:20:00,
2013-09-23 06:25:00,50.5,41.1,30.07,NW,322,10.0,12.0,70,0.00,,,0.00,0,Wunderground v.1.15,2013-09-23 10:25:00,
2013-09-23 06:30:00,50.5,41.1,30.07,NE,42,1.0,12.0,70,0.00,,,0.00,0,Wunderground v.1.15,2013-09-23 10:30:00,
2013-09-23 06:35:00,50.5,41.1,30.07,NNE,13,2.0,10.0,70,0.00,,,0.00,0,Wunderground v.1.15,2013-09-23 10:35:00,
2013-09-23 06:40:00,50.5,41.4,30.07,NNW,342,4.0,10.0,71,0.00,,,0.00,0,Wunderground v.1.15,2013-09-23 10:40:00,
2013-09-23 06:45:00,50.5,41.4,30.08,NNW,337,2.0,5.0,71,0.00,,,0.00,0,Wunderground v.1.15,2013-09-23 10:45:00,
2013-09-23 06:50:00,50.4,41.3,30.08,NE,45,2.0,5.0,71,0.00,,,0.00,0,Wunderground v.1.15,2013-09-23 10:50:00,
2013-09-23 06:55:00,50.4,41.3,30.08,North,360,7.0,7.0,71,0.00,,,0.00,5,Wunderground v.1.15,2013-09-23 10:55:00,
2013-09-23 07:00:00,50.4,41.0,30.08,NE,48,2.0,8.0,70,0.00,,,0.00,7,Wunderground v.1.15,2013-09-23 11:00:00,
2013-09-23 07:05:00,50.5,41.4,30.08,NNE,30,4.0,5.0,71,0.00,,,0.00,11,Wunderground v.1.15,2013-09-23 11:05:00,
2013-09-23 07:10:00,50.5,41.4,30.09,NNE,28,1.0,6.0,71,0.00,,,0.00,12,Wunderground v.1.15,2013-09-23 11:10:00,
2013-09-23 07:15:00,50.5,41.8,30.09,NW,308,4.0,7.0,72,0.00,,,0.00,14,Wunderground v.1.15,2013-09-23 11:15:00,
2013-09-23 07:20:00,50.5,41.4,30.09,NW,317,0.0,7.0,71,0.00,,,0.00,16,Wunderground v.1.15,2013-09-23 11:20:00,
2013-09-23 07:25:00,50.5,41.4,30.09,NNW,331,6.0,10.0,71,0.00,,,0.00,18,Wunderground v.1.15,2013-09-23 11:25:00,
2013-09-23 07:30:00,50.4,41.3,30.09,North,5,0.0,10.0,71,0.00,,,0.00,21,Wunderground v.1.15,2013-09-23 11:30:00,
2013-09-23 07:35:00,50.5,41.4,30.09,WNW,298,3.0,6.0,71,0.00,,,0.00,23,Wunderground v.1.15,2013-09-23 11:35:00,
2013-09-23 07:40:00,50.5,41.8,30.09,North,355,0.0,6.0,72,0.00,,,0.00,21,Wunderground v.1.15,2013-09-23 11:40:00,
2013-09-23 07:45:00,50.6,41.9,30.09,NNW,336,1.0,6.0,72,0.00,,,0.00,23,Wunderground v.1.15,2013-09-23 11:45:00,
2013-09-23 07:50:00,50.6,41.9,30.09,WNW,292,1.0,6.0,72,0.00,,,0.00,23,Wunderground v.1.15,2013-09-23 11:50:00,
2013-09-23 07:55:00,50.7,42.0,30.09,NNW,339,5.0,9.0,72,0.00,,,0.00,25,Wunderground v.1.15,2013-09-23 11:55:00,
2013-09-23 08:00:00,50.8,42.1,30.09,NNW,337,5.0,9.0,72,0.00,,,0.00,25,Wunderground v.1.15,2013-09-23 12:00:00,
2013-09-23 08:05:00,50.8,42.1,30.09,West,274,1.0,9.0,72,0.00,,,0.00,26,Wunderground v.1.15,2013-09-23 12:05:00,
2013-09-23 08:10:00,50.9,42.2,30.09,North,360,2.0,9.0,72,0.00,,,0.00,32,Wunderground v.1.15,2013-09-23 12:10:00,
2013-09-23 08:15:00,51.0,42.6,30.09,NW,306,2.0,5.0,73,0.00,,,0.00,47,Wunderground v.1.15,2013-09-23 12:15:00,
2013-09-23 08:20:00,51.0,42.3,30.10,West,267,0.0,5.0,72,0.00,,,0.00,35,Wunderground v.1.15,2013-09-23 12:20:00,
2013-09-23 08:25:00,51.1,42.4,30.10,NNW,334,2.0,7.0,72,0.00,,,0.00,30,Wunderground v.1.15,2013-09-23 12:25:00,
2013-09-23 08:30:00,51.2,42.8,30.09,WNW,286,2.0,2.0,73,0.00,,,0.00,33,Wunderground v.1.15,2013-09-23 12:30:00,
2013-09-23 08:35:00,51.4,42.7,30.09,NW,316,0.0,6.0,72,0.00,,,0.00,37,Wunderground v.1.15,2013-09-23 12:35:00,
2013-09-23 08:40:00,51.5,43.1,30.09,NNW,341,4.0,5.0,73,0.00,,,0.00,32,Wunderground v.1.15,2013-09-23 12:40:00,
2013-09-23 08:46:00,51.7,43.0,30.10,NNW,343,1.0,8.0,72,0.00,,,0.00,40,Wunderground v.1.15,2013-09-23 12:46:00,
2013-09-23 08:51:00,51.9,43.2,30.10,WNW,283,0.0,3.0,72,0.00,,,0.00,58,Wunderground v.1.15,2013-09-23 12:51:00,
2013-09-23 08:56:00,52.0,42.9,30.10,SW,231,3.0,3.0,71,0.00,,,0.00,86,Wunderground v.1.15,2013-09-23 12:56:00,
2013-09-23 09:01:00,52.1,42.6,30.10,SW,232,4.0,5.0,70,0.00,,,0.00,47,Wunderground v.1.15,2013-09-23 13:01:00,
2013-09-23 09:06:00,52.3,42.8,30.10,WNW,294,0.0,6.0,70,0.00,,,0.00,54,Wunderground v.1.15,2013-09-23 13:06:00,
2013-09-23 09:11:00,52.4,42.9,30.10,NE,36,0.0,3.0,70,0.00,,,0.00,118,Wunderground v.1.15,2013-09-23 13:11:00,
2013-09-23 09:16:00,52.6,42.7,30.10,North,5,3.0,7.0,69,0.00,,,0.00,39,Wunderground v.1.15,2013-09-23 13:16:00,
2013-09-23 09:21:00,52.7,42.8,30.10,NNE,30,1.0,3.0,69,0.00,,,0.00,47,Wunderground v.1.15,2013-09-23 13:21:00,
2013-09-23 09:26:00,52.8,42.5,30.10,WNW,289,2.0,5.0,68,0.00,,,0.00,118,Wunderground v.1.15,2013-09-23 13:26:00,
2013-09-23 09:31:00,53.0,42.3,30.10,NW,320,1.0,3.0,67,0.00,,,0.00,60,Wunderground v.1.15,2013-09-23 13:31:00,
2013-09-23 09:36:00,53.3,42.2,30.10,North,5,0.0,5.0,66,0.00,,,0.00,53,Wunderground v.1.15,2013-09-23 13:36:00,
2013-09-23 09:41:00,53.5,41.6,30.10,ENE,73,2.0,2.0,64,0.00,,,0.00,121,Wunderground v.1.15,2013-09-23 13:41:00,
2013-09-23 09:46:00,53.7,42.2,30.10,WSW,247,1.0,6.0,65,0.00,,,0.00,49,Wunderground v.1.15,2013-09-23 13:46:00,
2013-09-23 09:51:00,53.9,41.6,30.10,NE,49,7.0,7.0,63,0.00,,,0.00,42,Wunderground v.1.15,2013-09-23 13:51:00,
2013-09-23 09:56:00,54.1,42.2,30.10,NNE,31,1.0,13.0,64,0.00,,,0.00,46,Wunderground v.1.15,2013-09-23 13:56:00,
2013-09-23 10:01:00,54.3,42.0,30.09,WNW,298,1.0,3.0,63,0.00,,,0.00,44,Wunderground v.1.15,2013-09-23 14:01:00,
2013-09-23 10:06:00,54.5,42.2,30.09,NNE,13,0.0,6.0,63,0.00,,,0.00,51,Wunderground v.1.15,2013-09-23 14:06:00,
2013-09-23 10:11:00,54.7,42.3,30.09,North,9,5.0,5.0,63,0.00,,,0.00,176,Wunderground v.1.15,2013-09-23 14:11:00,
2013-09-23 10:16:00,54.9,41.7,30.09,NW,321,2.0,12.0,61,0.00,,,0.00,577,Wunderground v.1.15,2013-09-23 14:16:00,
2013-09-23 10:21:00,55.1,41.9,30.09,SW,236,7.0,10.0,61,0.00,,,0.00,589,Wunderground v.1.15,2013-09-23 14:21:00,
2013-09-23 10:26:00,55.3,41.6,30.09,NW,324,11.0,11.0,60,0.00,,,0.00,599,Wunderground v.1.15,2013-09-23 14:26:00,
2013-09-23 10:31:00,55.7,41.6,30.09,ENE,61,2.0,7.0,59,0.00,,,0.00,610,Wunderground v.1.15,2013-09-23 14:31:00,
2013-09-23 10:36:00,56.2,42.5,30.09,SW,223,0.0,7.0,60,0.00,,,0.00,621,Wunderground v.1.15,2013-09-23 14:36:00,
2013-09-23 10:41:00,56.8,42.2,30.09,NNW,343,4.0,4.0,58,0.00,,,0.00,629,Wunderground v.1.15,2013-09-23 14:41:00,
2013-09-23 10:46:00,57.3,42.6,30.09,NW,308,5.0,8.0,58,0.00,,,0.00,638,Wunderground v.1.15,2013-09-23 14:46:00,
2013-09-23 10:51:00,58.0,42.8,30.09,East,97,1.0,3.0,57,0.00,,,0.00,649,Wunderground v.1.15,2013-09-23 14:51:00,
2013-09-23 10:56:00,58.5,42.4,30.09,WNW,292,8.0,8.0,55,0.00,,,0.00,659,Wunderground v.1.15,2013-09-23 14:56:00,
2013-09-23 11:01:00,58.6,42.5,30.09,SW,229,1.0,4.0,55,0.00,,,0.00,668,Wunderground v.1.15,2013-09-23 15:01:00,
2013-09-23 11:06:00,58.9,43.2,30.09,NE,38,2.0,7.0,56,0.00,,,0.00,675,Wunderground v.1.15,2013-09-23 15:06:00,
2013-09-23 11:11:00,59.1,42.5,30.09,NNE,18,3.0,9.0,54,0.00,,,0.00,684,Wunderground v.1.15,2013-09-23 15:11:00,
2013-09-23 11:16:00,59.1,42.5,30.09,NE,42,3.0,9.0,54,0.00,,,0.00,689,Wunderground v.1.15,2013-09-23 15:16:00,
2013-09-23 11:21:00,59.6,43.4,30.09,West,267,4.0,4.0,55,0.00,,,0.00,696,Wunderground v.1.15,2013-09-23 15:21:00,
2013-09-23 11:26:00,60.1,43.4,30.09,SSE,153,0.0,5.0,54,0.00,,,0.00,703,Wunderground v.1.15,2013-09-23 15:26:00,
2013-09-23 11:32:00,60.5,42.3,30.09,NE,44,3.0,5.0,51,0.00,,,0.00,710,Wunderground v.1.15,2013-09-23 15:32:00,
2013-09-23 11:37:00,60.8,43.6,30.09,North,350,4.0,5.0,53,0.00,,,0.00,717,Wunderground v.1.15,2013-09-23 15:37:00,
2013-09-23 11:42:00,61.2,42.9,30.09,NW,313,6.0,7.0,51,0.00,,,0.00,722,Wunderground v.1.15,2013-09-23 15:42:00,
2013-09-23 11:47:00,61.2,42.4,30.09,West,259,4.0,13.0,50,0.00,,,0.00,726,Wunderground v.1.15,2013-09-23 15:47:00,
2013-09-23 11:52:00,60.9,42.6,30.08,NW,311,6.0,9.0,51,0.00,,,0.00,733,Wunderground v.1.15,2013-09-23 15:52:00,
2013-09-23 11:57:00,61.0,43.2,30.08,East,99,1.0,10.0,52,0.00,,,0.00,735,Wunderground v.1.15,2013-09-23 15:57:00,
2013-09-23 12:02:00,62.1,43.7,30.08,WNW,291,0.0,4.0,51,0.00,,,0.00,740,Wunderground v.1.15,2013-09-23 16:02:00,
2013-09-23 12:07:00,62.2,43.8,30.08,NNE,13,5.0,5.0,51,0.00,,,0.00,742,Wunderground v.1.15,2013-09-23 16:07:00,
2013-09-23 12:12:00,62.3,43.9,30.08,WNW,298,0.0,4.0,51,0.00,,,0.00,744,Wunderground v.1.15,2013-09-23 16:12:00,
2013-09-23 12:17:00,62.4,43.0,30.08,WSW,244,3.0,7.0,49,0.00,,,0.00,749,Wunderground v.1.15,2013-09-23 16:17:00,
2013-09-23 12:22:00,62.6,43.7,30.08,NNE,21,4.0,10.0,50,0.00,,,0.00,751,Wunderground v.1.15,2013-09-23 16:22:00,
2013-09-23 12:27:00,62.4,44.0,30.08,WSW,252,3.0,10.0,51,0.00,,,0.00,756,Wunderground v.1.15,2013-09-23 16:27:00,
2013-09-23 12:32:00,62.1,43.2,30.08,WNW,290,1.0,3.0,50,0.00,,,0.00,754,Wunderground v.1.15,2013-09-23 16:32:00,
2013-09-23 12:37:00,62.6,43.2,30.08,North,11,2.0,8.0,49,0.00,,,0.00,756,Wunderground v.1.15,2013-09-23 16:37:00,
2013-09-23 12:42:00,62.4,43.0,30.08,SW,228,2.0,8.0,49,0.00,,,0.00,756,Wunderground v.1.15,2013-09-23 16:42:00,
2013-09-23 12:47:00,62.8,43.9,30.08,NW,304,2.0,8.0,50,0.00,,,0.00,756,Wunderground v.1.15,2013-09-23 16:47:00,
2013-09-23 12:52:00,62.9,44.0,30.08,WSW,246,4.0,5.0,50,0.00,,,0.00,754,Wunderground v.1.15,2013-09-23 16:52:00,
2013-09-23 12:57:00,62.5,43.1,30.08,WSW,248,4.0,6.0,49,0.00,,,0.00,756,Wunderground v.1.15,2013-09-23 16:57:00,
2013-09-23 13:02:00,62.4,44.0,30.08,West,271,3.0,5.0,51,0.00,,,0.00,754,Wunderground v.1.15,2013-09-23 17:02:00,
2013-09-23 13:07:00,63.0,44.6,30.08,NNE,32,2.0,7.0,51,0.00,,,0.00,752,Wunderground v.1.15,2013-09-23 17:07:00,
2013-09-23 13:12:00,63.7,44.7,30.07,SW,234,3.0,5.0,50,0.00,,,0.00,751,Wunderground v.1.15,2013-09-23 17:12:00,
2013-09-23 13:17:00,64.1,44.5,30.07,South,185,2.0,12.0,49,0.00,,,0.00,751,Wunderground v.1.15,2013-09-23 17:17:00,
2013-09-23 13:22:00,64.0,44.4,30.07,WNW,292,2.0,9.0,49,0.00,,,0.00,744,Wunderground v.1.15,2013-09-23 17:22:00,
2013-09-23 13:27:00,64.2,44.6,30.07,NNW,338,3.0,9.0,49,0.00,,,0.00,744,Wunderground v.1.15,2013-09-23 17:27:00,
2013-09-23 13:32:00,63.7,43.6,30.07,ESE,121,2.0,8.0,48,0.00,,,0.00,132,Wunderground v.1.15,2013-09-23 17:32:00,
2013-09-23 13:37:00,63.6,43.5,30.07,NW,317,4.0,10.0,48,0.00,,,0.00,67,Wunderground v.1.15,2013-09-23 17:37:00,
2013-09-23 13:42:00,63.6,43.5,30.07,North,9,9.0,9.0,48,0.00,,,0.00,104,Wunderground v.1.15,2013-09-23 17:42:00,
2013-09-23 13:47:00,63.4,44.4,30.07,WSW,246,0.0,9.0,50,0.00,,,0.00,42,Wunderground v.1.15,2013-09-23 17:47:00,
2013-09-23 13:52:00,63.5,44.5,30.07,North,351,1.0,7.0,50,0.00,,,0.00,44,Wunderground v.1.15,2013-09-23 17:52:00,
2013-09-23 13:57:00,63.2,43.7,30.06,NE,45,5.0,11.0,49,0.00,,,0.00,42,Wunderground v.1.15,2013-09-23 17:57:00,
2013-09-23 14:02:00,63.1,45.2,30.06,NE,55,4.0,4.0,52,0.00,,,0.00,42,Wunderground v.1.15,2013-09-23 18:02:00,
2013-09-23 14:07:00,63.2,44.2,30.06,WNW,288,2.0,8.0,50,0.00,,,0.00,46,Wunderground v.1.15,2013-09-23 18:07:00,
2013-09-23 14:12:00,63.1,45.2,30.06,East,87,2.0,4.0,52,0.00,,,0.00,49,Wunderground v.1.15,2013-09-23 18:12:00,
2013-09-23 14:17:00,63.2,44.8,30.07,North,355,4.0,7.0,51,0.00,,,0.00,44,Wunderground v.1.15,2013-09-23 18:17:00,
2013-09-23 14:22:00,63.1,44.7,30.06,NE,42,5.0,5.0,51,0.00,,,0.00,39,Wunderground v.1.15,2013-09-23 18:22:00,
2013-09-23 14:27:00,63.1,44.2,30.06,West,276,1.0,8.0,50,0.00,,,0.00,42,Wunderground v.1.15,2013-09-23 18:27:00,
2013-09-23 14:32:00,62.9,45.0,30.06,ENE,69,2.0,3.0,52,0.00,,,0.00,40,Wunderground v.1.15,2013-09-23 18:32:00,
2013-09-23 14:37:00,62.9,44.0,30.06,WSW,241,2.0,5.0,50,0.00,,,0.00,40,Wunderground v.1.15,2013-09-23 18:37:00,
2013-09-23 14:42:00,62.8,44.4,30.06,West,259,2.0,6.0,51,0.00,,,0.00,113,Wunderground v.1.15,2013-09-23 18:42:00,
2013-09-23 14:47:00,62.8,44.4,30.06,NNW,336,2.0,6.0,51,0.00,,,0.00,47,Wunderground v.1.15,2013-09-23 18:47:00,
2013-09-23 14:52:00,62.7,44.3,30.06,NNE,28,6.0,7.0,51,0.00,,,0.00,58,Wunderground v.1.15,2013-09-23 18:52:00,
2013-09-23 14:57:00,62.7,44.3,30.06,WSW,237,2.0,9.0,51,0.00,,,0.00,37,Wunderground v.1.15,2013-09-23 18:57:00,
2013-09-23 15:02:00,62.6,44.7,30.05,SW,219,0.0,7.0,52,0.00,,,0.00,37,Wunderground v.1.15,2013-09-23 19:02:00,
2013-09-23 15:07:00,62.7,44.8,30.05,WSW,244,3.0,7.0,52,0.00,,,0.00,37,Wunderground v.1.15,2013-09-23 19:07:00,
2013-09-23 15:13:00,62.9,44.5,30.05,NNW,338,2.0,5.0,51,0.00,,,0.00,35,Wunderground v.1.15,2013-09-23 19:13:00,
2013-09-23 15:18:00,62.9,45.0,30.05,NNW,340,1.0,8.0,52,0.00,,,0.00,53,Wunderground v.1.15,2013-09-23 19:18:00,
2013-09-23 15:23:00,63.1,45.7,30.05,North,355,3.0,8.0,53,0.00,,,0.00,62,Wunderground v.1.15,2013-09-23 19:23:00,
2013-09-23 15:28:00,63.1,45.7,30.05,NNE,13,0.0,8.0,53,0.00,,,0.00,42,Wunderground v.1.15,2013-09-23 19:28:00,
2013-09-23 15:33:00,63.2,45.3,30.05,North,5,2.0,7.0,52,0.00,,,0.00,58,Wunderground v.1.15,2013-09-23 19:33:00,
2013-09-23 15:38:00,63.1,45.2,30.05,ENE,61,2.0,7.0,52,0.00,,,0.00,33,Wunderground v.1.15,2013-09-23 19:38:00,
2013-09-23 15:43:00,63.1,45.2,30.05,North,349,3.0,7.0,52,0.00,,,0.00,93,Wunderground v.1.15,2013-09-23 19:43:00,
2013-09-23 15:49:00,63.1,45.7,30.05,WNW,302,2.0,7.0,53,0.00,,,0.00,42,Wunderground v.1.15,2013-09-23 19:49:00,
2013-09-23 15:54:00,63.1,46.2,30.05,North,9,1.0,7.0,54,0.00,,,0.00,35,Wunderground v.1.15,2013-09-23 19:54:00,
2013-09-23 15:59:00,63.3,45.9,30.05,SSW,202,0.0,7.0,53,0.00,,,0.00,33,Wunderground v.1.15,2013-09-23 19:59:00,
2013-09-23 16:04:00,63.4,46.0,30.05,NNE,22,3.0,5.0,53,0.00,,,0.00,58,Wunderground v.1.15,2013-09-23 20:04:00,
2013-09-23 16:10:00,63.5,44.5,30.05,NW,314,4.0,6.0,50,0.00,,,0.00,84,Wunderground v.1.15,2013-09-23 20:10:00,
2013-09-23 16:15:00,63.6,45.1,30.05,NNE,13,0.0,7.0,51,0.00,,,0.00,37,Wunderground v.1.15,2013-09-23 20:15:00,
2013-09-23 16:20:00,63.6,45.6,30.05,NNW,344,4.0,7.0,52,0.00,,,0.00,47,Wunderground v.1.15,2013-09-23 20:20:00,
2013-09-23 16:25:00,63.7,45.7,30.05,WNW,298,2.0,3.0,52,0.00,,,0.00,33,Wunderground v.1.15,2013-09-23 20:25:00,
2013-09-23 16:30:00,63.7,45.2,30.05,SW,236,0.0,5.0,51,0.00,,,0.00,32,Wunderground v.1.15,2013-09-23 20:30:00,
2013-09-23 16:35:00,63.7,45.2,30.05,NW,325,1.0,7.0,51,0.00,,,0.00,49,Wunderground v.1.15,2013-09-23 20:35:00,
2013-09-23 16:40:00,63.7,45.2,30.05,NE,50,0.0,7.0,51,0.00,,,0.00,33,Wunderground v.1.15,2013-09-23 20:40:00,
2013-09-23 16:45:00,63.6,44.6,30.05,NE,40,0.0,7.0,50,0.00,,,0.00,44,Wunderground v.1.15,2013-09-23 20:45:00,
2013-09-23 16:50:00,63.6,45.1,30.05,NNW,338,1.0,7.0,51,0.00,,,0.00,32,Wunderground v.1.15,2013-09-23 20:50:00,
2013-09-23 16:55:00,63.6,45.1,30.05,WSW,248,2.0,5.0,51,0.00,,,0.00,30,Wunderground v.1.15,2013-09-23 20:55:00,
2013-09-23 17:00:00,63.6,45.1,30.05,NW,323,0.0,5.0,51,0.00,,,0.00,28,Wunderground v.1.15,2013-09-23 21:00:00,
2013-09-23 17:05:00,63.6,45.1,30.05,West,259,2.0,5.0,51,0.00,,,0.00,32,Wunderground v.1.15,2013-09-23 21:05:00,
2013-09-23 17:10:00,63.6,44.6,30.06,NNE,25,3.0,6.0,50,0.00,,,0.00,32,Wunderground v.1.15,2013-09-23 21:10:00,
2013-09-23 17:15:00,63.5,44.5,30.06,NNW,334,2.0,6.0,50,0.00,,,0.00,46,Wunderground v.1.15,2013-09-23 21:15:00,
2013-09-23 17:20:00,63.5,45.0,30.06,NNE,15,4.0,6.0,51,0.00,,,0.00,30,Wunderground v.1.15,2013-09-23 21:20:00,
2013-09-23 17:25:00,63.5,45.6,30.06,NE,40,0.0,4.0,52,0.00,,,0.00,28,Wunderground v.1.15,2013-09-23 21:25:00,
2013-09-23 17:30:00,63.5,46.6,30.07,WNW,287,2.0,4.0,54,0.00,,,0.00,25,Wunderground v.1.15,2013-09-23 21:30:00,
2013-09-23 17:35:00,63.5,46.6,30.07,NW,321,0.0,2.0,54,0.00,,,0.00,26,Wunderground v.1.15,2013-09-23 21:35:00,
2013-09-23 17:40:00,63.5,46.6,30.06,North,5,0.0,3.0,54,0.00,,,0.00,25,Wunderground v.1.15,2013-09-23 21:40:00,
2013-09-23 17:45:00,63.5,46.1,30.06,North,355,0.0,3.0,53,0.00,,,0.00,23,Wunderground v.1.15,2013-09-23 21:45:00,
2013-09-23 17:50:00,63.5,47.0,30.07,North,355,0.0,3.0,55,0.00,,,0.00,25,Wunderground v.1.15,2013-09-23 21:50:00,
2013-09-23 17:55:00,63.5,48.0,30.07,North,355,0.0,2.0,57,0.00,,,0.00,21,Wunderground v.1.15,2013-09-23 21:55:00,
2013-09-23 18:00:00,63.4,46.5,30.07,NNE,29,0.0,6.0,54,0.00,,,0.00,19,Wunderground v.1.15,2013-09-23 22:00:00,
2013-09-23 18:05:00,63.4,46.9,30.07,WNW,282,1.0,2.0,55,0.00,,,0.00,18,Wunderground v.1.15,2013-09-23 22:05:00,
2013-09-23 18:10:00,63.3,46.9,30.07,WNW,282,0.0,2.0,55,0.00,,,0.00,18,Wunderground v.1.15,2013-09-23 22:10:00,
2013-09-23 18:15:00,63.2,46.8,30.07,WNW,283,0.0,2.0,55,0.00,,,0.00,18,Wunderground v.1.15,2013-09-23 22:15:00,
2013-09-23 18:20:00,63.2,48.2,30.07,WNW,283,0.0,2.0,58,0.00,,,0.00,16,Wunderground v.1.15,2013-09-23 22:20:00,
2013-09-23 18:25:00,63.0,48.0,30.07,WNW,283,0.0,1.0,58,0.00,,,0.00,12,Wunderground v.1.15,2013-09-23 22:25:00,
2013-09-23 18:30:00,62.9,47.4,30.07,North,360,0.0,3.0,57,0.00,,,0.00,11,Wunderground v.1.15,2013-09-23 22:30:00,
2013-09-23 18:35:00,62.8,47.8,30.08,North,360,0.0,0.0,58,0.00,,,0.00,7,Wunderground v.1.15,2013-09-23 22:35:00,
2013-09-23 18:40:00,62.4,47.9,30.07,North,360,0.0,1.0,59,0.00,,,0.00,5,Wunderground v.1.15,2013-09-23 22:40:00,
2013-09-23 18:45:00,62.0,48.4,30.07,North,360,0.0,0.0,61,0.00,,,0.00,0,Wunderground v.1.15,2013-09-23 22:45:00,
2013-09-23 18:51:00,61.3,48.6,30.08,North,360,0.0,0.0,63,0.00,,,0.00,0,Wunderground v.1.15,2013-09-23 22:51:00,
2013-09-23 18:56:00,60.7,48.0,30.08,North,360,0.0,1.0,63,0.00,,,0.00,0,Wunderground v.1.15,2013-09-23 22:56:00,
2013-09-23 19:01:00,60.2,48.0,30.08,North,360,0.0,1.0,64,0.00,,,0.00,0,Wunderground v.1.15,2013-09-23 23:01:00,
2013-09-23 19:06:00,59.8,48.4,30.08,North,360,0.0,1.0,66,0.00,,,0.00,0,Wunderground v.1.15,2013-09-23 23:06:00,
2013-09-23 19:11:00,59.5,48.5,30.08,North,360,0.0,0.0,67,0.00,,,0.00,0,Wunderground v.1.15,2013-09-23 23:11:00,
2013-09-23 19:16:00,59.1,48.5,30.08,North,360,0.0,0.0,68,0.00,,,0.00,0,Wunderground v.1.15,2013-09-23 23:16:00,
2013-09-23 19:21:00,58.6,48.1,30.08,North,360,0.0,0.0,68,0.00,,,0.00,0,Wunderground v.1.15,2013-09-23 23:21:00,
2013-09-23 19:26:00,58.2,48.1,30.08,North,360,0.0,0.0,69,0.00,,,0.00,0,Wunderground v.1.15,2013-09-23 23:26:00,
2013-09-23 19:31:00,57.9,47.8,30.08,North,360,0.0,0.0,69,0.00,,,0.00,0,Wunderground v.1.15,2013-09-23 23:31:00,
2013-09-23 19:36:00,57.6,47.5,30.08,North,360,0.0,1.0,69,0.00,,,0.00,0,Wunderground v.1.15,2013-09-23 23:36:00,
2013-09-23 19:41:00,57.5,47.8,30.08,North,360,0.0,1.0,70,0.00,,,0.00,0,Wunderground v.1.15,2013-09-23 23:41:00,
2013-09-23 19:46:00,57.2,47.9,30.09,North,360,0.0,1.0,71,0.00,,,0.00,0,Wunderground v.1.15,2013-09-23 23:46:00,
2013-09-23 19:51:00,56.9,48.0,30.09,North,360,0.0,0.0,72,0.00,,,0.00,0,Wunderground v.1.15,2013-09-23 23:51:00,
2013-09-23 19:56:00,56.8,47.9,30.09,North,360,0.0,1.0,72,0.00,,,0.00,0,Wunderground v.1.15,2013-09-23 23:56:00,
2013-09-23 20:02:00,56.6,47.7,30.09,North,360,1.0,2.0,72,0.00,,,0.00,0,Wunderground v.1.15,2013-09-24 00:02:00,
2013-09-23 20:07:00,56.5,47.6,30.09,North,360,0.0,2.0,72,0.00,,,0.00,0,Wunderground v.1.15,2013-09-24 00:07:00,
2013-09-23 20:12:00,56.3,48.1,30.10,North,360,0.0,0.0,74,0.00,,,0.00,0,Wunderground v.1.15,2013-09-24 00:12:00,
2013-09-23 20:17:00,56.2,48.0,30.10,North,360,0.0,0.0,74,0.00,,,0.00,0,Wunderground v.1.15,2013-09-24 00:17:00,
2013-09-23 20:22:00,56.1,47.6,30.10,North,360,0.0,1.0,73,0.00,,,0.00,0,Wunderground v.1.15,2013-09-24 00:22:00,
2013-09-23 20:27:00,56.0,47.5,30.10,ENE,69,1.0,3.0,73,0.00,,,0.00,0,Wunderground v.1.15,2013-09-24 00:27:00,
2013-09-23 20:32:00,55.9,47.0,30.10,NNE,14,1.0,3.0,72,0.00,,,0.00,0,Wunderground v.1.15,2013-09-24 00:32:00,
2013-09-23 20:37:00,56.0,46.7,30.10,WNW,289,0.0,5.0,71,0.00,,,0.00,0,Wunderground v.1.15,2013-09-24 00:37:00,
2013-09-23 20:42:00,56.2,46.9,30.10,WNW,292,2.0,2.0,71,0.00,,,0.00,0,Wunderground v.1.15,2013-09-24 00:42:00,
2013-09-23 20:47:00,56.4,46.7,30.10,NW,321,0.0,3.0,70,0.00,,,0.00,0,Wunderground v.1.15,2013-09-24 00:47:00,
2013-09-23 20:52:00,56.5,46.8,30.10,NW,312,2.0,2.0,70,0.00,,,0.00,0,Wunderground v.1.15,2013-09-24 00:52:00,
2013-09-23 20:57:00,56.7,46.6,30.11,North,351,5.0,5.0,69,0.00,,,0.00,0,Wunderground v.1.15,2013-09-24 00:57:00,
2013-09-23 21:02:00,56.8,46.7,30.10,NNW,338,5.0,6.0,69,0.00,,,0.00,0,Wunderground v.1.15,2013-09-24 01:02:00,
2013-09-23 21:07:00,56.9,46.4,30.11,WNW,298,1.0,6.0,68,0.00,,,0.00,0,Wunderground v.1.15,2013-09-24 01:07:00,
2013-09-23 21:12:00,56.9,46.4,30.10,NNW,336,0.0,2.0,68,0.00,,,0.00,0,Wunderground v.1.15,2013-09-24 01:12:00,
2013-09-23 21:17:00,57.0,46.5,30.11,ENE,65,0.0,2.0,68,0.00,,,0.00,0,Wunderground v.1.15,2013-09-24 01:17:00,
2013-09-23 21:22:00,57.0,46.1,30.11,NNW,331,1.0,2.0,67,0.00,,,0.00,0,Wunderground v.1.15,2013-09-24 01:22:00,
2013-09-23 21:27:00,57.0,46.1,30.11,NW,317,0.0,3.0,67,0.00,,,0.00,0,Wunderground v.1.15,2013-09-24 01:27:00,
2013-09-23 21:32:00,57.0,46.1,30.11,NNE,20,0.0,1.0,67,0.00,,,0.00,0,Wunderground v.1.15,2013-09-24 01:32:00,
2013-09-23 21:37:00,57.0,46.5,30.11,NW,311,0.0,3.0,68,0.00,,,0.00,0,Wunderground v.1.15,2013-09-24 01:37:00,
2013-09-23 21:42:00,56.9,46.8,30.11,NW,311,0.0,0.0,69,0.00,,,0.00,0,Wunderground v.1.15,2013-09-24 01:42:00,
2013-09-23 21:47:00,56.7,46.3,30.11,WSW,237,0.0,3.0,68,0.00,,,0.00,0,Wunderground v.1.15,2013-09-24 01:47:00,
2013-09-23 21:52:00,56.5,45.7,30.12,NNW,341,2.0,3.0,67,0.00,,,0.00,0,Wunderground v.1.15,2013-09-24 01:52:00,
2013-09-23 21:57:00,56.4,46.0,30.12,NNW,341,1.0,3.0,68,0.00,,,0.00,0,Wunderground v.1.15,2013-09-24 01:57:00,
2013-09-23 22:02:00,56.3,45.5,30.12,West,276,1.0,3.0,67,0.00,,,0.00,0,Wunderground v.1.15,2013-09-24 02:02:00,
2013-09-23 22:07:00,56.2,45.4,30.13,NNE,24,0.0,3.0,67,0.00,,,0.00,0,Wunderground v.1.15,2013-09-24 02:07:00,
2013-09-23 22:12:00,56.2,45.4,30.13,NNE,19,0.0,1.0,67,0.00,,,0.00,0,Wunderground v.1.15,2013-09-24 02:12:00,
2013-09-23 22:17:00,56.1,45.7,30.13,North,5,0.0,1.0,68,0.00,,,0.00,0,Wunderground v.1.15,2013-09-24 02:17:00,
2013-09-23 22:22:00,56.1,46.1,30.13,West,281,0.0,2.0,69,0.00,,,0.00,0,Wunderground v.1.15,2013-09-24 02:22:00,
2013-09-23 22:27:00,56.0,46.0,30.13,WNW,288,3.0,5.0,69,0.00,,,0.00,0,Wunderground v.1.15,2013-09-24 02:27:00,
2013-09-23 22:32:00,56.0,46.0,30.13,NE,48,0.0,3.0,69,0.00,,,0.00,0,Wunderground v.1.15,2013-09-24 02:32:00,
2013-09-23 22:37:00,55.9,46.3,30.13,NE,42,0.0,3.0,70,0.00,,,0.00,0,Wunderground v.1.15,2013-09-24 02:37:00,
2013-09-23 22:42:00,55.8,46.2,30.14,NE,38,0.0,2.0,70,0.00,,,0.00,0,Wunderground v.1.15,2013-09-24 02:42:00,
2013-09-23 22:47:00,55.7,46.1,30.14,NW,322,1.0,4.0,70,0.00,,,0.00,0,Wunderground v.1.15,2013-09-24 02:47:00,
2013-09-23 22:52:00,55.5,45.5,30.14,NE,41,2.0,6.0,69,0.00,,,0.00,0,Wunderground v.1.15,2013-09-24 02:52:00,
2013-09-23 22:57:00,55.4,45.4,30.14,WNW,300,2.0,6.0,69,0.00,,,0.00,0,Wunderground v.1.15,2013-09-24 02:57:00,
2013-09-23 23:02:00,55.3,45.3,30.14,NW,319,0.0,3.0,69,0.00,,,0.00,0,Wunderground v.1.15,2013-09-24 03:02:00,
2013-09-23 23:07:00,55.2,45.6,30.14,ENE,57,0.0,3.0,70,0.00,,,0.00,0,Wunderground v.1.15,2013-09-24 03:07:00,
2013-09-23 23:12:00,55.1,45.5,30.14,NNW,347,0.0,2.0,70,0.00,,,0.00,0,Wunderground v.1.15,2013-09-24 03:12:00,
2013-09-23 23:17:00,55.0,45.4,30.15,NE,44,0.0,3.0,70,0.00,,,0.00,0,Wunderground v.1.15,2013-09-24 03:17:00,
2013-09-23 23:22:00,54.8,45.2,30.15,WNW,282,1.0,2.0,70,0.00,,,0.00,0,Wunderground v.1.15,2013-09-24 03:22:00,
2013-09-23 23:28:00,54.7,45.5,30.15,West,259,1.0,3.0,71,0.00,,,0.00,0,Wunderground v.1.15,2013-09-24 03:28:00,
2013-09-23 23:33:00,54.5,45.3,30.15,NE,38,4.0,4.0,71,0.00,,,0.00,0,Wunderground v.1.15,2013-09-24 03:33:00,
2013-09-23 23:38:00,54.4,45.6,30.14,North,350,0.0,8.0,72,0.00,,,0.00,0,Wunderground v.1.15,2013-09-24 03:38:00,
2013-09-23 23:43:00,54.2,45.4,30.14,NNW,333,0.0,3.0,72,0.00,,,0.00,0,Wunderground v.1.15,2013-09-24 03:43:00,
2013-09-23 23:48:00,54.1,45.6,30.14,North,5,4.0,8.0,73,0.00,,,0.00,0,Wunderground v.1.15,2013-09-24 03:48:00,
2013-09-23 23:53:00,54.0,45.5,30.14,WNW,291,3.0,4.0,73,0.00,,,0.00,0,Wunderground v.1.15,2013-09-24 03:53:00,
2013-09-23 23:58:00,53.9,45.1,30.14,West,270,1.0,6.0,72,0.00,,,0.00,0,Wunderground v.1.15,2013-09-24 03:58:00,